TimeEDT,TemperatureF,Dew PointF,Humidity,Sea Level PressureIn,VisibilityMPH,Wind Direction,Wind SpeedMPH,Gust SpeedMPH,PrecipitationIn,Events,Conditions,WindDirDegrees,DateUTC
12:51 AM,63.0,60.1,90,30.16,9.0,West,3.5,-,N/A,,Clear,270,2013-08-19 04:51:00
1:51 AM,61.0,60.1,97,30.15,5.0,WSW,3.5,-,N/A,,Clear,240,2013-08-19 05:51:00
2:51 AM,62.1,60.1,93,30.14,8.0,SW,3.5,-,N/A,,Scattered Clouds,220,2013-08-19 06:51:00
3:51 AM,60.1,59.0,96,30.14,6.0,WSW,3.5,-,N/A,,Partly Cloudy,240,2013-08-19 07:51:00
4:51 AM,60.1,59.0,96,30.14,6.0,SW,3.5,-,N/A,,Clear,220,2013-08-19 08:51:00
5:51 AM,59.0,57.9,96,30.14,5.0,WSW,3.5,-,N/A,,Clear,240,2013-08-19 09:51:00
6:51 AM,61.0,59.0,93,30.14,4.0,Calm,Calm,-,N/A,,Clear,0,2013-08-19 10:51:00
7:51 AM,64.0,61.0,90,30.15,5.0,SW,5.8,-,N/A,,Clear,230,2013-08-19 11:51:00
8:51 AM,66.0,60.1,81,30.14,10.0,West,4.6,-,N/A,,Clear,270,2013-08-19 12:51:00
9:51 AM,68.0,59.0,73,30.14,10.0,West,5.8,-,N/A,,Clear,270,2013-08-19 13:51:00
10:51 AM,72.0,61.0,68,30.12,10.0,Variable,3.5,-,N/A,,Clear,0,2013-08-19 14:51:00
11:51 AM,73.0,59.0,61,30.11,10.0,West,4.6,-,N/A,,Clear,270,2013-08-19 15:51:00
12:51 PM,75.0,61.0,62,30.09,10.0,West,3.5,-,N/A,,Clear,260,2013-08-19 16:51:00
1:51 PM,75.0,63.0,66,30.09,10.0,WSW,10.4,-,N/A,,Clear,240,2013-08-19 17:51:00
2:51 PM,75.0,63.0,66,30.08,10.0,SW,8.1,-,N/A,,Partly Cloudy,230,2013-08-19 18:51:00
3:51 PM,75.0,64.0,69,30.07,10.0,SW,6.9,-,N/A,,Clear,230,2013-08-19 19:51:00
4:51 PM,75.9,63.0,64,30.07,10.0,WSW,9.2,-,N/A,,Partly Cloudy,240,2013-08-19 20:51:00
5:51 PM,75.0,64.9,71,30.06,10.0,WSW,6.9,-,N/A,,Overcast,240,2013-08-19 21:51:00
6:51 PM,73.9,64.9,73,30.06,10.0,SW,6.9,-,N/A,,Overcast,230,2013-08-19 22:51:00
7:51 PM,72.0,64.9,78,30.06,10.0,WSW,5.8,-,N/A,,Clear,250,2013-08-19 23:51:00
8:51 PM,68.0,64.0,87,30.06,10.0,SW,4.6,-,N/A,,Clear,220,2013-08-20 00:51:00
9:51 PM,68.0,64.0,87,30.08,10.0,WSW,3.5,-,N/A,,Clear,250,2013-08-20 01:51:00
10:51 PM,66.0,64.0,93,30.09,9.0,West,3.5,-,N/A,,Clear,280,2013-08-20 02:51:00
11:51 PM,64.0,62.1,93,30.09,9.0,SW,3.5,-,N/A,,Clear,230,2013-08-20 03:51:00